Location: ??
(35.5052°N, 139.7262°E)
Time: 03:34:20
(UTC+00:00)

Cosmos 1743 Rocket - Pass Details

Date: 20 June 2021
Orbit: 604 x 632 km, 82.6° (Epoch: 26 July)

Event Time Altitude Azimuth Distance (km) Brightness Sun altitude
Exits shadow 18:39:51 10° 215° (SW) 1,986 5.5 -8.7°
Reaches altitude 10° 18:39:53 10° 216° (SW) 1,969 5.5 -8.7°
Maximum altitude 18:43:52 34° 281° (WNW) 1,021 4.4 -8.0°
Drops below altitude 10° 18:47:54 10° 347° (NNW) 1,997 6.5 -7.4°
Sets 18:50:19 0° 357° (N) 2,913 7.5 -7.0°
